This is the latest recevied weather packets stored in our database for station/object OK1LPD-6. If no packets are shown the sender has not sent any weather packets the latest 10 day(s).
| Time | Temp. | Humidity | Pressure | Rain* | Wind** | Luminosity | Snow |
|---|---|---|---|---|---|---|---|
| 1777553690 | 15.56° C | 24% | 1030 hPa | 0 mm | - | - | - |
| 1777553107 | 14.44° C | 24% | 1030 hPa | 0 mm | - | - | - |
| 1777552490 | 15.56° C | 24% | 1030.1 hPa | 0 mm | - | - | - |
| 1777551889 | 14.44° C | 24% | 1030.3 hPa | 0 mm | - | - | - |
| 1777551307 | 14.44° C | 24% | 1030.1 hPa | 0 mm | - | - | - |
| 1777550690 | 14.44° C | 24% | 1030.3 hPa | 0 mm | - | - | - |
| 1777550090 | 14.44° C | 24% | 1030.4 hPa | 0 mm | - | - | - |
| 1777549500 | 14.44° C | 24% | 1030.4 hPa | 0 mm | - | - | - |
| 1777548889 | 13.89° C | 24% | 1030.4 hPa | 0 mm | - | - | - |
| 1777548290 | 13.89° C | 24% | 1030.6 hPa | 0 mm | - | - | - |
| 1777547702 | 14.44° C | 24% | 1030.7 hPa | 0 mm | - | - | - |
| 1777547091 | 13.89° C | 24% | 1030.8 hPa | 0 mm | - | - | - |
| 1777546490 | 13.89° C | 24% | 1030.7 hPa | 0 mm | - | - | - |
| 1777545900 | 13.33° C | 24% | 1031 hPa | 0 mm | - | - | - |
| 1777545290 | 12.78° C | 24% | 1031.2 hPa | 0 mm | - | - | - |
| 1777544690 | 12.78° C | 24% | 1031.3 hPa | 0 mm | - | - | - |
| 1777544102 | 13.33° C | 24% | 1031.3 hPa | 0 mm | - | - | - |
| 1777543491 | 12.78° C | 26% | 1031.5 hPa | 0 mm | - | - | - |
| 1777542891 | 12.78° C | 26% | 1031.5 hPa | 0 mm | - | - | - |
| 1777542301 | 12.78° C | 26% | 1031.5 hPa | 0 mm | - | - | - |
| 1777541691 | 12.78° C | 26% | 1031.5 hPa | 0 mm | - | - | - |
| 1777541091 | 12.22° C | 30% | 1031.5 hPa | 0 mm | - | - | - |
| 1777540502 | 12.22° C | 26% | 1031.6 hPa | 0 mm | - | - | - |
| 1777539891 | 12.22° C | 30% | 1031.6 hPa | 0 mm | - | - | - |
| 1777539291 | 11.67° C | 31% | 1031.7 hPa | 0 mm | - | - | - |
* Rain latest hour (hover to see other rain measurements)
** Current wind speed in m/s (hover to see current wind gust speed)